When you browse on this site, cookies collect data to enhance your experience and personalize the content and advertising you see.
Visit our Privacy Policy to learn more. By continuing to use the site, you agree to this use of cookies and data.

Hourly Weather Crete

Today, 11 July, Saturday

Time Temperature Precipitation Wind Pressure Humidity
00:00 +19°C° 0 mm 3 mps 706 mmHg 72%
01:00 +19°C° 0 mm 3 mps 706 mmHg 72%
02:00 +19°C° 0 mm 3 mps 706 mmHg 71%
03:00 +18°C° 0 mm 3 mps 706 mmHg 73%
04:00 +18°C° 0 mm 3 mps 706 mmHg 75%
05:00 +18°C° 0 mm 3 mps 706 mmHg 77%
06:00 +19°C° 0 mm 4 mps 706 mmHg 72%
07:00 +21°C° 0 mm 4 mps 706 mmHg 68%
08:00 +23°C° 0 mm 4 mps 706 mmHg 63%
09:00 +25°C° 0 mm 4 mps 707 mmHg 58%
10:00 +26°C° 0 mm 4 mps 707 mmHg 53%
11:00 +27°C° 0 mm 5 mps 708 mmHg 48%
12:00 +27°C° 0 mm 5 mps 708 mmHg 47%
13:00 +28°C° 0 mm 5 mps 708 mmHg 46%
14:00 +28°C° 0 mm 5 mps 708 mmHg 45%
15:00 +27°C° 0 mm 5 mps 707 mmHg 47%
16:00 +27°C° 0 mm 5 mps 707 mmHg 49%
17:00 +26°C° 0 mm 5 mps 707 mmHg 51%
18:00 +25°C° 0 mm 4 mps 707 mmHg 55%
19:00 +22°C° 0 mm 4 mps 706 mmHg 60%
20:00 +21°C° 0 mm 3 mps 706 mmHg 64%
21:00 +21°C° 0 mm 3 mps 706 mmHg 62%
22:00 +21°C° 0 mm 4 mps 706 mmHg 60%
23:00 +20°C° 0 mm 4 mps 706 mmHg 58%

Tomorrow, 12 July, Sunday

Time Temperature Precipitation Wind Pressure Humidity
00:00 +20°C° 0 mm 4 mps 706 mmHg 58%
01:00 +20°C° 0 mm 4 mps 705 mmHg 59%
02:00 +20°C° 0 mm 4 mps 705 mmHg 59%
03:00 +19°C° 0 mm 4 mps 705 mmHg 61%
04:00 +19°C° 0 mm 4 mps 705 mmHg 63%
05:00 +19°C° 0 mm 4 mps 704 mmHg 65%
06:00 +20°C° 0 mm 4 mps 705 mmHg 60%
07:00 +22°C° 0 mm 4 mps 705 mmHg 55%
08:00 +25°C° 0 mm 5 mps 705 mmHg 50%
09:00 +26°C° 0 mm 5 mps 706 mmHg 47%
10:00 +27°C° 0 mm 5 mps 706 mmHg 44%
11:00 +28°C° 0 mm 5 mps 706 mmHg 41%
12:00 +28°C° 0 mm 5 mps 706 mmHg 40%
13:00 +28°C° 0 mm 6 mps 706 mmHg 40%
14:00 +29°C° 0 mm 6 mps 706 mmHg 39%
15:00 +28°C° 0 mm 6 mps 706 mmHg 39%
16:00 +28°C° 0 mm 6 mps 705 mmHg 38%
17:00 +27°C° 0 mm 6 mps 705 mmHg 37%
18:00 +26°C° 0 mm 5 mps 705 mmHg 40%
19:00 +25°C° 0 mm 5 mps 705 mmHg 42%
20:00 +22°C° 0 mm 5 mps 705 mmHg 44%
21:00 +22°C° 0 mm 5 mps 705 mmHg 45%
22:00 +22°C° 0 mm 5 mps 705 mmHg 47%
23:00 +21°C° 0 mm 5 mps 705 mmHg 48%

Day after tomorrow, 13 July, Monday

Time Temperature Precipitation Wind Pressure Humidity
00:00 +21°C° 0 mm 5 mps 704 mmHg 52%
01:00 +21°C° 0 mm 5 mps 704 mmHg 56%
02:00 +21°C° 0 mm 6 mps 704 mmHg 60%
03:00 +21°C° 0 mm 6 mps 703 mmHg 62%
04:00 +21°C° 0 mm 6 mps 703 mmHg 65%
05:00 +21°C° 0 mm 6 mps 703 mmHg 68%
06:00 +22°C° 0 mm 7 mps 703 mmHg 63%
07:00 +23°C° 0 mm 7 mps 703 mmHg 59%
08:00 +24°C° 0 mm 7 mps 704 mmHg 54%
09:00 +26°C° 0 mm 8 mps 704 mmHg 51%
10:00 +27°C° 0 mm 8 mps 704 mmHg 48%
11:00 +28°C° 0 mm 8 mps 704 mmHg 44%
12:00 +28°C° 0 mm 9 mps 704 mmHg 43%
13:00 +28°C° 0 mm 9 mps 704 mmHg 43%
14:00 +28°C° 0 mm 9 mps 704 mmHg 42%
15:00 +28°C° 0 mm 9 mps 704 mmHg 45%
16:00 +27°C° 0 mm 9 mps 704 mmHg 48%
17:00 +26°C° 0 mm 9 mps 703 mmHg 51%
18:00 +24°C° 0 mm 8 mps 703 mmHg 56%
19:00 +23°C° 0 mm 8 mps 703 mmHg 62%
20:00 +21°C° 0 mm 7 mps 704 mmHg 68%
21:00 +21°C° 0 mm 7 mps 704 mmHg 70%
22:00 +21°C° 0 mm 7 mps 704 mmHg 73%
23:00 +21°C° 0 mm 7 mps 704 mmHg 76%

14 July, Tuesday

Time Temperature Precipitation Wind Pressure Humidity
00:00 +21°C° 0 mm 7 mps 704 mmHg 77%
01:00 +20°C° 0 mm 8 mps 704 mmHg 78%
02:00 +20°C° 0 mm 8 mps 704 mmHg 79%
03:00 +20°C° 0 mm 8 mps 704 mmHg 79%
04:00 +20°C° 0 mm 8 mps 703 mmHg 80%
05:00 +20°C° 0 mm 8 mps 703 mmHg 81%
06:00 +20°C° 0 mm 8 mps 704 mmHg 74%
07:00 +21°C° 0 mm 8 mps 704 mmHg 66%
08:00 +22°C° 0 mm 8 mps 705 mmHg 59%
09:00 +23°C° 0 mm 8 mps 705 mmHg 56%
10:00 +24°C° 0 mm 8 mps 705 mmHg 52%
11:00 +26°C° 0 mm 8 mps 706 mmHg 49%
12:00 +26°C° 0 mm 8 mps 706 mmHg 50%
13:00 +26°C° 0 mm 8 mps 706 mmHg 50%
14:00 +26°C° 0 mm 8 mps 706 mmHg 51%
15:00 +24°C° 0 mm 8 mps 706 mmHg 54%
16:00 +24°C° 0 mm 7 mps 705 mmHg 56%
17:00 +23°C° 0 mm 7 mps 705 mmHg 59%
18:00 +22°C° 0 mm 7 mps 705 mmHg 64%
19:00 +21°C° 0 mm 7 mps 705 mmHg 70%
20:00 +19°C° 0 mm 6 mps 705 mmHg 76%
21:00 +19°C° 0 mm 6 mps 705 mmHg 77%
22:00 +19°C° 0 mm 6 mps 706 mmHg 78%
23:00 +19°C° 0 mm 6 mps 706 mmHg 79%

15 July, Wednesday

Time Temperature Precipitation Wind Pressure Humidity
00:00 +19°C° 0 mm 6 mps 706 mmHg 77%
01:00 +17°C° 0 mm 5 mps 706 mmHg 76%
02:00 +17°C° 0 mm 5 mps 706 mmHg 75%
03:00 +17°C° 0 mm 6 mps 705 mmHg 74%
04:00 +17°C° 0 mm 6 mps 705 mmHg 74%
05:00 +17°C° 0 mm 6 mps 705 mmHg 73%
06:00 +19°C° 0 mm 6 mps 706 mmHg 66%
07:00 +21°C° 0 mm 6 mps 706 mmHg 60%
08:00 +22°C° 0 mm 6 mps 707 mmHg 53%
09:00 +23°C° 0 mm 6 mps 707 mmHg 50%
10:00 +24°C° 0 mm 6 mps 707 mmHg 46%
11:00 +26°C° 0 mm 6 mps 707 mmHg 42%
12:00 +26°C° 0 mm 6 mps 708 mmHg 41%
13:00 +27°C° 0 mm 6 mps 708 mmHg 40%
14:00 +27°C° 0 mm 6 mps 708 mmHg 39%
15:00 +26°C° 0 mm 6 mps 708 mmHg 39%
16:00 +26°C° 0 mm 6 mps 707 mmHg 39%
17:00 +26°C° 0 mm 5 mps 707 mmHg 39%
18:00 +23°C° 0 mm 5 mps 707 mmHg 44%
19:00 +22°C° 0 mm 4 mps 707 mmHg 50%
20:00 +21°C° 0 mm 4 mps 707 mmHg 56%
21:00 +20°C° 0 mm 4 mps 707 mmHg 57%
22:00 +20°C° 0 mm 4 mps 707 mmHg 59%
23:00 +20°C° 0 mm 4 mps 707 mmHg 60%

16 July, Thursday

Time Temperature Precipitation Wind Pressure Humidity
00:00 +20°C° 0 mm 4 mps 707 mmHg 60%
01:00 +20°C° 0 mm 5 mps 706 mmHg 60%
02:00 +19°C° 0 mm 5 mps 706 mmHg 60%
03:00 +19°C° 0 mm 5 mps 706 mmHg 62%
04:00 +19°C° 0 mm 5 mps 706 mmHg 64%
05:00 +19°C° 0 mm 5 mps 705 mmHg 66%
06:00 +20°C° 0 mm 5 mps 706 mmHg 59%
07:00 +22°C° 0 mm 6 mps 706 mmHg 52%
08:00 +24°C° 0 mm 6 mps 706 mmHg 45%
09:00 +26°C° 0 mm 6 mps 706 mmHg 42%
10:00 +27°C° 0 mm 7 mps 707 mmHg 39%
11:00 +28°C° 0 mm 7 mps 707 mmHg 36%
12:00 +28°C° 0 mm 8 mps 707 mmHg 36%
13:00 +28°C° 0 mm 8 mps 707 mmHg 37%
14:00 +28°C° 0 mm 8 mps 707 mmHg 37%
15:00 +28°C° 0 mm 8 mps 706 mmHg 38%
16:00 +27°C° 0 mm 8 mps 706 mmHg 39%
17:00 +27°C° 0 mm 8 mps 706 mmHg 40%
18:00 +24°C° 0 mm 7 mps 705 mmHg 43%
19:00 +23°C° 0 mm 6 mps 705 mmHg 47%
20:00 +22°C° 0 mm 6 mps 705 mmHg 50%
21:00 +21°C° 0 mm 6 mps 705 mmHg 51%
22:00 +21°C° 0 mm 5 mps 705 mmHg 52%
23:00 +21°C° 0 mm 5 mps 705 mmHg 53%
Show more